Find Starlink 31557

NORAD ID: 59357 Int'l Des: 2024-060 Owner: SPXS Country: US Constellation: starlink operational
LEOCIRCULAR

Current View

Loading 3D Globe...

About Starlink 31557

Starlink 31557 (NORAD 59357) is a starlink constellation satellite (v2 mini) launched Mar 31, 2024 by SPXS of US. It operates in LEO, CIRCULAR orbit with a mass of 730.00 kg.

Upcoming Passes

Passes for default location (London). Set your location on the main map for personalized predictions.

Altitude History

Loading altitude history...

Two-Line Element Set

1 59357U 24060K 26265.59334858 .00000447 00000-0 25756-4 0 9991
2 59357 43.0026 223.7540 0000929 270.7900 89.2845 15.27578806140228
Epoch: Sep 22, 2026 • Age: 16 hours

Current Status

Altitude 485.8 km
Apogee / Perigee N/A
Velocity 7.63 km/s
Sub-Earth Point 38.42°N, 116.42°W
Launch Date Mar 31, 2024
Age 2.4 years
Type internet

Technical Details

Classification Payload
Mass 730.00 kg
Dry Mass 700.00 kg
Length 0.30 m
Span 29.00 m
Shape ? Box + pan
Manufacturer SPXS
Bus Type Starlink V2M
Phase Status In Orbit
Owner/State SPXS/US

Most Searched